| time (UTC) | temp F | wind direction | speed MPH | gust MPH | rain 1hr in | rain 24hr in | rain mn in | humidity % | barometer mb |
| 20260503193038 | 83 | 155 | 0.0 | 6.0 | 0.00 | 0.00 | 0.00 | 34 | 1010.3 |
| 20260503191525 | 83 | 103 | 1.0 | 6.0 | 0.00 | 0.00 | 0.00 | 35 | 1010.5 |
| 20260503190021 | 82 | 68 | 1.0 | 4.0 | 0.00 | 0.00 | 0.00 | 36 | 1010.6 |
| 20260503184523 | 80 | 117 | 1.0 | 4.0 | 0.00 | 0.00 | 0.00 | 39 | 1010.8 |
| 20260503183013 | 78 | 89 | 0.0 | 5.0 | 0.00 | 0.00 | 0.00 | 44 | 1011.0 |
| 20260503181636 | 77 | 116 | 0.0 | 3.0 | 0.00 | 0.00 | 0.00 | 45 | 1011.2 |
| 20260503180015 | 76 | 137 | 0.0 | 3.0 | 0.00 | 0.00 | 0.00 | 47 | 1011.3 |
| 20260503174505 | 75 | 256 | 2.0 | 7.0 | 0.00 | 0.00 | 0.00 | 46 | 1011.5 |
| 20260503173004 | 74 | 37 | 0.0 | 5.0 | 0.00 | 0.00 | 0.00 | 49 | 1011.6 |
| 20260503171559 | 74 | 113 | 0.0 | 2.0 | 0.00 | 0.00 | 0.00 | 50 | 1011.7 |
| 20260503081525 | 56 | 349 | 0.0 | 0.0 | 0.00 | 0.01 | 0.00 | 89 | 1012.5 |
| 20260503071518 | 57 | 349 | 0.0 | 0.0 | 0.00 | 0.01 | 0.00 | 87 | 1012.6 |
| 20260503054513 | 60 | 351 | 0.0 | 0.0 | 0.00 | 0.01 | 0.01 | 81 | 1012.3 |
| 20260503053013 | 61 | 82 | 0.0 | 4.0 | 0.00 | 0.01 | 0.01 | 80 | 1012.4 |
| 20260503051515 | 60 | 189 | 0.0 | 0.0 | 0.00 | 0.01 | 0.01 | 82 | 1012.2 |
| 20260503050018 | 61 | 155 | 0.0 | 0.0 | 0.00 | 0.01 | 0.01 | 81 | 1012.8 |
| 20260503044513 | 61 | 120 | 0.0 | 1.0 | 0.00 | 0.01 | 0.01 | 81 | 1012.6 |
| 20260503043010 | 61 | 276 | 0.0 | 0.0 | 0.00 | 0.01 | 0.01 | 81 | 1012.4 |
| 20260503041511 | 61 | 275 | 0.0 | 2.0 | 0.00 | 0.01 | 0.01 | 81 | 1012.5 |
| 20260503040009 | 62 | 344 | 0.0 | 1.0 | 0.00 | 0.01 | 0.01 | 79 | 1012.6 |
| 20260503034508 | 62 | 344 | 0.0 | 1.0 | 0.00 | 0.01 | 0.01 | 78 | 1012.5 |
| 20260503033007 | 63 | 344 | 0.0 | 3.0 | 0.00 | 0.01 | 0.01 | 76 | 1012.3 |
| 20260503031507 | 63 | 342 | 0.0 | 2.0 | 0.00 | 0.01 | 0.01 | 75 | 1012.1 |
| 20260503030006 | 65 | 161 | 0.0 | 0.0 | 0.00 | 0.01 | 0.01 | 72 | 1012.3 |
| 20260503024505 | 65 | 186 | 0.0 | 3.0 | 0.00 | 0.01 | 0.01 | 72 | 1012.4 |
| 20260503023005 | 66 | 163 | 0.0 | 3.0 | 0.00 | 0.01 | 0.01 | 70 | 1012.6 |
| 20260503021503 | 67 | 254 | 0.0 | 10.0 | 0.00 | 0.01 | 0.01 | 67 | 1012.5 |
| 20260503020003 | 68 | 205 | 0.0 | 1.0 | 0.00 | 0.01 | 0.01 | 65 | 1012.0 |
| 20260503014501 | 69 | 212 | 0.0 | 2.0 | 0.00 | 0.01 | 0.01 | 63 | 1011.6 |
| 20260503013003 | 70 | 273 | 0.0 | 0.0 | 0.00 | 0.01 | 0.01 | 60 | 1011.4 |
| 20260503011609 | 70 | 267 | 0.0 | 1.0 | 0.00 | 0.01 | 0.01 | 60 | 1011.3 |
| 20260503010122 | 71 | 226 | 0.0 | 1.0 | 0.00 | 0.01 | 0.01 | 59 | 1011.3 |
| 20260503004559 | 71 | 262 | 0.0 | 3.0 | 0.00 | 0.01 | 0.01 | 58 | 1011.3 |
| 20260503003100 | 70 | 248 | 0.0 | 2.0 | 0.00 | 0.01 | 0.01 | 59 | 1011.4 |
| 20260503001600 | 71 | 266 | 0.0 | 1.0 | 0.00 | 0.01 | 0.01 | 58 | 1011.3 |
| 20260502234554 | 71 | 220 | 0.0 | 3.0 | 0.00 | 0.01 | 0.01 | 58 | 1011.5 |
| 20260502233051 | 70 | 79 | 1.0 | 5.0 | 0.00 | 0.01 | 0.01 | 55 | 1011.7 |
| 20260502231547 | 69 | 266 | 0.0 | 3.0 | 0.00 | 0.01 | 0.01 | 56 | 1011.9 |
| 20260502230044 | 68 | 238 | 0.0 | 0.0 | 0.00 | 0.01 | 0.01 | 62 | 1012.1 |
| 20260502224542 | 68 | 275 | 1.0 | 3.0 | 0.00 | 0.01 | 0.01 | 62 | 1012.4 |
| 20260502223043 | 67 | 124 | 3.0 | 6.0 | 0.00 | 0.01 | 0.01 | 62 | 1012.6 |
| 20260502221536 | 68 | 122 | 0.0 | 5.0 | 0.00 | 0.01 | 0.01 | 62 | 1012.7 |
| 20260502220034 | 67 | 149 | 0.0 | 3.0 | 0.00 | 0.01 | 0.01 | 62 | 1013.1 |
| 20260502214537 | 67 | 79 | 0.0 | 3.0 | 0.00 | 0.01 | 0.01 | 63 | 1013.2 |
| 20260502213030 | 66 | 120 | 1.0 | 7.0 | 0.00 | 0.01 | 0.01 | 64 | 1013.4 |
| 20260502211528 | 64 | 277 | 0.0 | 4.0 | 0.00 | 0.01 | 0.01 | 66 | 1013.7 |
| 20260502210029 | 64 | 155 | 0.0 | 5.0 | 0.00 | 0.01 | 0.01 | 66 | 1013.9 |
| 20260502204518 | 63 | 270 | 0.0 | 3.0 | 0.00 | 0.01 | 0.01 | 69 | 1014.2 |
| 20260502203015 | 62 | 244 | 0.0 | 2.0 | 0.00 | 0.01 | 0.01 | 69 | 1014.5 |
| 20260502201518 | 62 | 229 | 0.0 | 3.0 | 0.00 | 0.01 | 0.01 | 69 | 1014.6 |
| 20260502200010 | 60 | 131 | 0.0 | 4.0 | 0.00 | 0.01 | 0.01 | 73 | 1014.7 |
| 20260502194506 | 59 | 275 | 1.0 | 7.0 | 0.00 | 0.01 | 0.01 | 76 | 1014.9 |